Volver al catálogo

STARLINK-35577

ActivoComunicacionesVLEO
NORAD 66538·PAYLOAD·🇺🇸 United States

Lanzado Nov 19, 2025 desde Cape Canaveral Space Force Station

Loading…

Próximos Pases (próximas 24 horas)

TLE

ActualizadoSource: CelesTrak SupGP

Época: Sep 14, 2026, 21:39 UTC

1 66538C 25265Y   26257.90256944  .00007238  00000+0  26218-3 0  2577
2 66538  43.0003 289.3323 0001342 268.7605   9.7089 15.27570057    17

Sigue STARLINK-35577 en tiempo real con AllMySat

Download on the App Store